{"data":{"norad_id":63837,"intl_designator":"2025-093B","name":"STARLINK-34053","alt_names":[],"object_type":"PAYLOAD","status":"ACTIVE","operator":null,"country":"US","launch_date":"2025-05-07","launch_site_code":"AFETR","launch_vehicle":null,"mission":null,"orbit_class":"UNKNOWN","rcs_meters":null,"size_class":null,"mass_kg":null,"dimensions":null,"purposes":["comms"],"wikipedia_slug":null,"has_3d_model":false,"image_url":null,"decayed_at":null,"tle_current":{"epoch":"2026-05-25T00:17:39.475680Z","epoch_age_seconds":77586,"freshness":"FRESH","line1":"1 63837U 25093B   26145.01226245  .00009927  00000+0  36974-3 0  9994","line2":"2 63837  43.0026   6.9697 0001471 263.6577  96.4107 15.27583788 59588","mean_motion":15.27583788,"eccentricity":0.0001471,"inclination_deg":43.0026,"raan_deg":6.9697,"arg_perigee_deg":263.6577,"mean_anomaly_deg":96.4107,"bstar":0.00036974,"rev_number":5958,"period_min":94.26651495728,"perigee_km":482.02847462214,"apogee_km":484.0470322346,"semimajor_km":6861.1747534284,"source":"CELESTRAK","updated_at":"2026-05-25T13:38:20.145987Z"}}}